Time_in_sec,gx,gy,gz
1314892987.89258766,0.23425191,0.10754894,-0.96620871
1314892987.94462609,0.23434998,0.10771547,-0.96616638
1314892987.99262118,0.23431639,0.10773970,-0.96617182
1314892988.04527521,0.23438729,0.10792372,-0.96613408
1314892988.09260201,0.23464305,0.10775893,-0.96609039
1314892988.14457440,0.23487694,0.10749943,-0.96606247
1314892988.19247913,0.23472463,0.10700096,-0.96615482
1314892988.24549651,0.23495844,0.10695885,-0.96610265
1314892988.29362488,0.23487191,0.10687417,-0.96613307
1314892988.34483814,0.23484231,0.10664519,-0.96616556
1314892988.39267659,0.23490290,0.10648113,-0.96616893
1314892988.44457436,0.23484833,0.10546186,-0.96629398
1314892988.49262381,0.23477239,0.10543763,-0.96631508
1314892988.54448795,0.23495078,0.10530169,-0.96628654
1314892988.59263587,0.23484250,0.10524012,-0.96631957
1314892988.64468789,0.23494062,0.10525366,-0.96629425
1314892988.69361901,0.23483885,0.10509446,-0.96633631
1314892988.74467039,0.23459688,0.10517746,-0.96638605
1314892988.79263234,0.23474702,0.10522823,-0.96634407
1314892988.84463692,0.23462537,0.10526169,-0.96636997
1314892988.89752460,0.23455248,0.10502529,-0.96641338
1314892988.94451141,0.23467827,0.10537699,-0.96634456
1314892988.99351406,0.23473596,0.10551532,-0.96631545
1314892989.04449153,0.23471764,0.10578313,-0.96629062
1314892989.09258890,0.23471345,0.10582064,-0.96628753
1314892989.14460301,0.23456989,0.10591807,-0.96631172
1314892989.19259906,0.23399920,0.10605818,-0.96643470
1314892989.24448037,0.23402708,0.10606646,-0.96642704
1314892989.29346871,0.23397672,0.10579516,-0.96646898
1314892989.34543276,0.23388691,0.10586499,-0.96648307
1314892989.39252996,0.23411451,0.10593547,-0.96642024
1314892989.44447327,0.23460554,0.10615325,-0.96627725
1314892989.49353600,0.23452121,0.10592888,-0.96632235
1314892989.54502916,0.23456117,0.10591401,-0.96631428
1314892989.59248281,0.23467462,0.10579153,-0.96630015
1314892989.64453101,0.23475588,0.10602426,-0.96625490
1314892989.69512653,0.23493138,0.10583994,-0.96623245
1314892989.74277949,0.23481970,0.10599637,-0.96624245
1314892989.79259419,0.23479473,0.10592095,-0.96625679
1314892989.84452057,0.23480948,0.10621326,-0.96622112
1314892989.89252830,0.23475518,0.10638667,-0.96621524
1314892989.94525170,0.23493509,0.10592555,-0.96622217
1314892989.99251390,0.23494149,0.10569085,-0.96624632
1314892990.04449105,0.23485667,0.10552652,-0.96628489
1314892990.09353733,0.23487608,0.10556650,-0.96627581
1314892990.14522839,0.23475113,0.10547017,-0.96631669
1314892990.19363737,0.23417742,0.10502533,-0.96650433
1314892990.24449682,0.23424812,0.10508915,-0.96648026
1314892990.29246616,0.23407440,0.10487452,-0.96654566
1314892990.34459877,0.23396631,0.10503844,-0.96655403
1314892990.39257240,0.23394966,0.10508862,-0.96655260
1314892990.44549990,0.23418536,0.10416032,-0.96659601
1314892990.49271441,0.23439089,0.10417535,-0.96654457
1314892990.54538321,0.23457698,0.10427160,-0.96648905
1314892990.59252596,0.23444933,0.10444017,-0.96650182
1314892990.64524412,0.23466146,0.10444927,-0.96644935
1314892990.69311762,0.23475069,0.10431110,-0.96644260
1314892990.74583483,0.23477247,0.10436895,-0.96643107
1314892990.79351258,0.23489170,0.10433000,-0.96640630
1314892990.84488153,0.23494811,0.10426641,-0.96639945
1314892990.89252925,0.23510019,0.10412025,-0.96637822
1314892990.94448876,0.23506775,0.10418591,-0.96637904
1314892990.99254680,0.23478748,0.10425426,-0.96643980
1314892991.04446006,0.23458290,0.10438236,-0.96647565
1314892991.09269500,0.23458471,0.10419566,-0.96649536
1314892991.14480782,0.23477875,0.10430071,-0.96643691
1314892991.19259810,0.23428837,0.10391335,-0.96659763
1314892991.24520707,0.23431539,0.10387338,-0.96659537
1314892991.29253793,0.23421926,0.10367989,-0.96663944
1314892991.34494686,0.23428615,0.10375344,-0.96661534
1314892991.39273405,0.23412328,0.10387387,-0.96664187
1314892991.44552755,0.23393663,0.10371644,-0.96670396
1314892991.49366689,0.23370442,0.10357326,-0.96677548
1314892991.54552007,0.23371584,0.10374494,-0.96675431
1314892991.59281707,0.23360143,0.10399773,-0.96675480
1314892991.64464712,0.23359508,0.10381482,-0.96677599
1314892991.69764757,0.23386641,0.10385949,-0.96670560
1314892991.74559689,0.23365849,0.10383136,-0.96675889
1314892991.79763508,0.23357143,0.10356833,-0.96680814
1314892991.84461021,0.23359015,0.10344542,-0.96681678
1314892991.89251733,0.23344142,0.10328046,-0.96687034
1314892991.94552279,0.23426377,0.10369439,-0.96662710
1314892991.99251556,0.23429595,0.10374479,-0.96661390
1314892992.04456949,0.23416139,0.10365305,-0.96665634
1314892992.09249353,0.23401198,0.10347414,-0.96671169
1314892992.14553952,0.23433722,0.10362824,-0.96661640
1314892992.19254112,0.23509037,0.10379617,-0.96641548
1314892992.24855208,0.23535583,0.10366479,-0.96636496
1314892992.29250574,0.23554408,0.10365979,-0.96631963
1314892992.34447479,0.23544085,0.10369661,-0.96634084
1314892992.39265394,0.23539406,0.10382819,-0.96633811
1314892992.44452477,0.23591448,0.10427360,-0.96616322
1314892992.49249458,0.23600599,0.10422198,-0.96614644
1314892992.54551435,0.23618841,0.10420096,-0.96610413
1314892992.59249210,0.23604895,0.10417850,-0.96614064
1314892992.64449453,0.23627350,0.10408326,-0.96609601
1314892992.69349861,0.23664923,0.10434023,-0.96597632
1314892992.74533367,0.23662222,0.10432320,-0.96598478
1314892992.79265714,0.23661216,0.10441559,-0.96597726
1314892992.84527636,0.23686333,0.10433026,-0.96592492
1314892992.89277339,0.23685203,0.10402693,-0.96596041
1314892992.94451332,0.23650605,0.10383152,-0.96606620
1314892992.99368501,0.23661608,0.10415232,-0.96600472
1314892993.04452324,0.23659353,0.10428916,-0.96599548
1314892993.09247541,0.23638493,0.10419791,-0.96605639
1314892993.14451528,0.23640152,0.10407911,-0.96606514
1314892993.19252992,0.23614917,0.10438547,-0.96609381
1314892993.24459767,0.23624511,0.10433791,-0.96607549
1314892993.29350686,0.23610113,0.10421575,-0.96612387
1314892993.34551549,0.23588029,0.10384178,-0.96621808
1314892993.39277649,0.23591986,0.10386825,-0.96620557
1314892993.44452119,0.23568576,0.10329031,-0.96632465
1314892993.49264407,0.23573932,0.10309298,-0.96633266
1314892993.54458165,0.23575905,0.10320273,-0.96631613
1314892993.59263825,0.23553916,0.10317923,-0.96637226
1314892993.64450717,0.23553513,0.10343889,-0.96634548
1314892993.69273138,0.23565482,0.10346360,-0.96631366
1314892993.74561906,0.23559066,0.10349928,-0.96632548
1314892993.79262948,0.23555577,0.10360693,-0.96632245
1314892993.84572363,0.23551966,0.10356863,-0.96633536
1314892993.89262795,0.23570824,0.10376009,-0.96626884
1314892993.94462681,0.23514144,0.10304090,-0.96648387
1314892993.99260426,0.23509666,0.10318912,-0.96647895
1314892994.04461551,0.23529287,0.10335989,-0.96641295
1314892994.09262514,0.23540251,0.10315676,-0.96640796
1314892994.14460039,0.23537607,0.10327141,-0.96640215
1314892994.19359803,0.23568904,0.10267439,-0.96638949
1314892994.24551058,0.23565422,0.10268506,-0.96639685
1314892994.29347587,0.23543156,0.10278476,-0.96644052
1314892994.34471703,0.23544652,0.10281297,-0.96643387
1314892994.39291143,0.23507339,0.10262218,-0.96654498
1314892994.44480109,0.23507576,0.10285107,-0.96652007
1314892994.49361539,0.23504334,0.10299540,-0.96651258
1314892994.54451108,0.23520834,0.10287683,-0.96648507
1314892994.59262037,0.23511012,0.10307521,-0.96648783
1314892994.64551663,0.23522918,0.10342291,-0.96642172
1314892994.69746161,0.23535673,0.10358879,-0.96637289
1314892994.74463511,0.23553018,0.10382577,-0.96630520
1314892994.79360390,0.23511634,0.10392698,-0.96639510
1314892994.84459066,0.23495409,0.10412479,-0.96641327
1314892994.89260983,0.23497251,0.10418620,-0.96640217
1314892994.94458961,0.23464566,0.10315779,-0.96659189
1314892994.99258399,0.23488713,0.10326275,-0.96652203
1314892995.04458642,0.23480503,0.10309316,-0.96656008
1314892995.09260321,0.23476281,0.10308207,-0.96657152
1314892995.14451408,0.23494862,0.10326138,-0.96650723
1314892995.19253254,0.23527296,0.10314322,-0.96644095
1314892995.24449635,0.23556103,0.10342505,-0.96634066
1314892995.29351449,0.23563273,0.10355140,-0.96630964
1314892995.34547448,0.23588892,0.10374156,-0.96622674
1314892995.39261961,0.23568106,0.10387770,-0.96626283
1314892995.44450474,0.23635922,0.10426682,-0.96605525
1314892995.49352598,0.23636108,0.10417363,-0.96606485
1314892995.54551005,0.23631674,0.10397691,-0.96609689
1314892995.59346628,0.23607870,0.10380686,-0.96617337
1314892995.64451790,0.23593710,0.10378503,-0.96621030
1314892995.69252658,0.23594306,0.10400481,-0.96618522
1314892995.74454284,0.23595407,0.10405090,-0.96617756
1314892995.79258490,0.23585817,0.10406290,-0.96619969
1314892995.84458327,0.23570633,0.10427353,-0.96621403
1314892995.89352942,0.23580295,0.10447592,-0.96616859
1314892995.94538069,0.23553595,0.10453838,-0.96622696
1314892995.99352193,0.23554589,0.10456912,-0.96622121
1314892996.04452729,0.23560568,0.10464421,-0.96619851
1314892996.09353542,0.23543267,0.10479445,-0.96622440
1314892996.14451504,0.23545718,0.10477222,-0.96622083
1314892996.19324207,0.23517018,0.10499244,-0.96626682
1314892996.24548864,0.23515030,0.10514155,-0.96625545
1314892996.29249787,0.23529598,0.10556978,-0.96617329
1314892996.34552097,0.23497954,0.10581479,-0.96622350
1314892996.39259911,0.23478546,0.10575060,-0.96627770
1314892996.44528294,0.23451755,0.10569161,-0.96634921
1314892996.49248385,0.23436465,0.10570138,-0.96638524
1314892996.54534030,0.23445042,0.10579438,-0.96635426
1314892996.59271693,0.23457086,0.10588811,-0.96631476
1314892996.64451647,0.23477524,0.10580636,-0.96627408
1314892996.69353342,0.23459600,0.10547960,-0.96635334
1314892996.74447370,0.23470384,0.10532827,-0.96634366
1314892996.79350901,0.23467267,0.10527283,-0.96635727
1314892996.84487820,0.23462049,0.10545485,-0.96635009
1314892996.89262724,0.23468974,0.10537167,-0.96634235
1314892996.94546700,0.23468702,0.10519567,-0.96636218
1314892996.99261761,0.23477133,0.10498090,-0.96636506
1314892997.04486418,0.23462439,0.10510762,-0.96638698
1314892997.09372258,0.23464878,0.10531913,-0.96635802
1314892997.14494538,0.23464942,0.10505469,-0.96638665
1314892997.19258690,0.23556810,0.10569899,-0.96609285
1314892997.24488187,0.23552160,0.10572729,-0.96610109
1314892997.29259849,0.23563526,0.10566283,-0.96608043
1314892997.34552312,0.23538107,0.10577356,-0.96613027
1314892997.39271379,0.23519067,0.10577269,-0.96617674
1314892997.44481325,0.23543471,0.10629584,-0.96605988
1314892997.49260759,0.23535848,0.10645893,-0.96606050
1314892997.54456520,0.23517420,0.10653640,-0.96609683
1314892997.59248924,0.23517014,0.10636397,-0.96611682
1314892997.64449787,0.23497113,0.10625509,-0.96617722
1314892997.69258642,0.23584268,0.10661662,-0.96592501
1314892997.74467015,0.23574226,0.10656806,-0.96595488
1314892997.79361415,0.23587440,0.10667226,-0.96591112
1314892997.84563136,0.23579976,0.10672846,-0.96592314
1314892997.89259100,0.23578528,0.10668981,-0.96593094
1314892997.94465733,0.23518725,0.10652341,-0.96609509
1314892997.99358082,0.23531774,0.10656631,-0.96605858
1314892998.04454112,0.23511203,0.10675748,-0.96608756
1314892998.09253526,0.23492558,0.10695798,-0.96611074
1314892998.14538050,0.23486856,0.10678616,-0.96614361
1314892998.19251418,0.23454072,0.10709590,-0.96618897
1314892998.24449635,0.23458458,0.10690170,-0.96619982
1314892998.29461741,0.23451105,0.10697761,-0.96620927
1314892998.34553790,0.23447721,0.10704898,-0.96620958
1314892998.39262009,0.23455746,0.10745804,-0.96614469
1314892998.44450355,0.23500829,0.10727969,-0.96605495
1314892998.49427271,0.23505387,0.10746560,-0.96602320
1314892998.54857874,0.23483718,0.10773828,-0.96604553
1314892998.59447289,0.23486443,0.10769419,-0.96604382
1314892998.64475584,0.23480521,0.10775955,-0.96605093
1314892998.69462800,0.23501245,0.10717008,-0.96606611
1314892998.74459743,0.23493037,0.10718366,-0.96608456
1314892998.79257751,0.23472078,0.10730362,-0.96612219
1314892998.84473777,0.23478818,0.10736186,-0.96609934
1314892998.89259028,0.23477410,0.10767039,-0.96606843
1314892998.94518995,0.23472439,0.10710011,-0.96614389
1314892998.99352074,0.23485691,0.10689425,-0.96613449
1314892999.04449964,0.23498019,0.10694589,-0.96609880
1314892999.09252119,0.23482333,0.10674885,-0.96615873
1314892999.14517212,0.23468130,0.10687286,-0.96617953
1314892999.19350910,0.23467818,0.10693447,-0.96617347
1314892999.24493980,0.23458001,0.10697967,-0.96619230
1314892999.29244590,0.23477719,0.10691000,-0.96615212
1314892999.34595108,0.23475709,0.10682134,-0.96616681
1314892999.39353108,0.23477282,0.10703439,-0.96613941
1314892999.44462204,0.23466288,0.10692290,-0.96617846
1314892999.49312973,0.23484274,0.10695314,-0.96613142
1314892999.54424405,0.23486180,0.10697402,-0.96612447
1314892999.59361339,0.23480633,0.10697197,-0.96613818
1314892999.64461589,0.23470812,0.10699546,-0.96615944
1314892999.69260287,0.23435846,0.10666895,-0.96628042
1314892999.74312091,0.23426259,0.10659511,-0.96631181
1314892999.79362130,0.23417439,0.10634588,-0.96636065
1314892999.84447050,0.23424762,0.10622623,-0.96635606
1314892999.89258695,0.23400731,0.10633706,-0.96640210
1314892999.94460440,0.23375845,0.10586173,-0.96651450
1314892999.99361587,0.23394035,0.10607423,-0.96644719
1314893000.04503894,0.23399998,0.10614700,-0.96642476
1314893000.09260583,0.23398442,0.10610796,-0.96643282
1314893000.14458776,0.23397305,0.10591561,-0.96645667
1314893000.19364095,0.23403409,0.10567250,-0.96646850
1314893000.24527073,0.23376304,0.10589511,-0.96650973
1314893000.29349923,0.23369676,0.10585389,-0.96653028
1314893000.34449220,0.23364915,0.10595202,-0.96653104
1314893000.39255857,0.23382453,0.10578856,-0.96650653
1314893000.44458747,0.23386451,0.10587729,-0.96648714
1314893000.49364233,0.23348909,0.10597694,-0.96656698
1314893000.54551482,0.23345901,0.10593752,-0.96657857
1314893000.59259439,0.23343570,0.10604965,-0.96657190
1314893000.64539385,0.23352808,0.10622179,-0.96653069
1314893000.69261503,0.23401976,0.10607641,-0.96642772
1314893000.74448776,0.23400323,0.10601535,-0.96643843
1314893000.79442358,0.23404978,0.10585762,-0.96644445
1314893000.84458423,0.23393439,0.10588253,-0.96646965
1314893000.89259267,0.23382137,0.10591907,-0.96649300
1314893000.94553685,0.23396164,0.10628389,-0.96641900
1314893000.99249411,0.23397707,0.10635564,-0.96640737
1314893001.04571891,0.23406136,0.10632994,-0.96638979
1314893001.09257364,0.23394636,0.10633786,-0.96641676
1314893001.14553118,0.23391351,0.10651596,-0.96640510
1314893001.19256806,0.23434795,0.10639915,-0.96631271
1314893001.24549723,0.23434470,0.10631389,-0.96632288
1314893001.29248643,0.23440600,0.10648173,-0.96628954
1314893001.34456873,0.23460227,0.10633402,-0.96625817
1314893001.39350486,0.23478202,0.10610200,-0.96624002
1314893001.44637656,0.23525364,0.10580890,-0.96615744
1314893001.49251270,0.23525513,0.10583470,-0.96615425
1314893001.54598856,0.23508056,0.10591624,-0.96618781
1314893001.59256244,0.23510111,0.10592276,-0.96618209
1314893001.64505434,0.23525845,0.10596658,-0.96613899
1314893001.69252014,0.23539267,0.10633847,-0.96606543
1314893001.74551582,0.23552220,0.10646281,-0.96602017
1314893001.79252481,0.23561595,0.10652425,-0.96599053
1314893001.84455872,0.23551922,0.10692550,-0.96596979
1314893001.89253235,0.23556867,0.10692392,-0.96595791
1314893001.94552398,0.23594831,0.10681163,-0.96587767
1314893001.99257874,0.23599411,0.10714066,-0.96583004
1314893002.04465103,0.23602568,0.10717782,-0.96581820
1314893002.09259200,0.23608160,0.10726510,-0.96579484
1314893002.14453435,0.23621133,0.10728011,-0.96576145
1314893002.19248033,0.23593013,0.10727979,-0.96583022
1314893002.24452424,0.23574245,0.10715942,-0.96588941
1314893002.29249763,0.23570349,0.10714893,-0.96590008
1314893002.34459805,0.23565738,0.10705976,-0.96592122
1314893002.39268231,0.23562118,0.10710284,-0.96592528
1314893002.44453597,0.23539583,0.10620683,-0.96607914
1314893002.49371338,0.23536857,0.10631337,-0.96607407
1314893002.54461265,0.23545158,0.10612521,-0.96607453
1314893002.59261370,0.23545603,0.10622154,-0.96606286
1314893002.64558458,0.23558537,0.10640973,-0.96601061
1314893002.69262457,0.23561520,0.10571538,-0.96607957
1314893002.74560857,0.23576000,0.10543669,-0.96607470
1314893002.79261041,0.23589788,0.10549750,-0.96603440
1314893002.84571576,0.23579426,0.10543787,-0.96606621
1314893002.89387894,0.23586006,0.10550763,-0.96604253
1314893002.94571805,0.23610291,0.10532007,-0.96600367
1314893002.99360180,0.23588741,0.10515514,-0.96607429
1314893003.04464173,0.23609079,0.10535267,-0.96600308
1314893003.09365201,0.23604039,0.10537037,-0.96601347
1314893003.14552045,0.23605305,0.10553799,-0.96599208
1314893003.19361377,0.23619647,0.10498672,-0.96601709
1314893003.24554801,0.23605882,0.10508151,-0.96604043
1314893003.29362345,0.23602575,0.10496291,-0.96606140
1314893003.34548569,0.23600727,0.10478340,-0.96608541
1314893003.39269924,0.23582952,0.10484475,-0.96612215
1314893003.44458103,0.23608116,0.10420716,-0.96612968
1314893003.49260879,0.23597432,0.10406675,-0.96617091
1314893003.54551005,0.23601412,0.10409350,-0.96615831
1314893003.59262753,0.23589715,0.10391064,-0.96620656
1314893003.64472437,0.23573453,0.10394366,-0.96624270
1314893003.69361472,0.23538735,0.10303645,-0.96642448
1314893003.74462795,0.23536082,0.10316868,-0.96641684
1314893003.79363394,0.23541563,0.10333465,-0.96638576
1314893003.84551716,0.23518468,0.10313063,-0.96646378
1314893003.89363027,0.23536672,0.10320753,-0.96641125
1314893003.94451618,0.23531996,0.10272210,-0.96647436
1314893003.99256539,0.23549306,0.10289944,-0.96641333
1314893004.04450345,0.23537796,0.10299678,-0.96643100
1314893004.09371901,0.23546284,0.10302104,-0.96640774
1314893004.14452672,0.23528409,0.10323904,-0.96642801
1314893004.19260430,0.23568472,0.10295398,-0.96636080
1314893004.24446368,0.23605087,0.10293184,-0.96627378
1314893004.29254436,0.23619940,0.10284630,-0.96624660
1314893004.34569383,0.23616527,0.10264093,-0.96627677
1314893004.39262533,0.23630201,0.10255192,-0.96625279
1314893004.44450307,0.23636698,0.10190711,-0.96630512
1314893004.49255347,0.23642520,0.10165556,-0.96631738
1314893004.54559779,0.23659504,0.10144865,-0.96629755
1314893004.59260535,0.23671526,0.10141922,-0.96627120
1314893004.64355397,0.23677290,0.10143249,-0.96625568
1314893004.69433832,0.23685995,0.10063097,-0.96631815
1314893004.74550891,0.23704207,0.10080174,-0.96625569
1314893004.79352975,0.23686075,0.10059079,-0.96632214
1314893004.84853363,0.23699963,0.10046858,-0.96630080
1314893004.89250016,0.23698848,0.10039092,-0.96631161
1314893004.94551468,0.23664427,0.09982423,-0.96645466
1314893004.99246979,0.23667208,0.09972967,-0.96645761
1314893005.04449105,0.23679411,0.09959308,-0.96644181
1314893005.09485221,0.23691646,0.09959416,-0.96641171
1314893005.14560699,0.23698791,0.09949901,-0.96640399
1314893005.19259262,0.23695288,0.09957154,-0.96640511
1314893005.24560809,0.23681738,0.09952527,-0.96644309
1314893005.29360914,0.23683368,0.09959460,-0.96643196
1314893005.34633088,0.23642343,0.09978468,-0.96651279
1314893005.39258289,0.23637589,0.10007520,-0.96649438
1314893005.44863367,0.23684444,0.09996549,-0.96639102
1314893005.49248505,0.23648243,0.10032377,-0.96644255
1314893005.54493880,0.23675105,0.10036756,-0.96637223
1314893005.59360909,0.23689784,0.10028182,-0.96634516
1314893005.64460683,0.23698718,0.10041656,-0.96630926
1314893005.69261670,0.23719205,0.10113428,-0.96618414
1314893005.74446225,0.23718837,0.10112571,-0.96618594
